Regional Weather Roundup
Issued by NWS

Home | Current Version | Previous Version | Graphics & Text | Print | Product List | Glossary On
Versions: 1 2 3 4 5 6 7 8 9 10 11 12 13 14 15 16 17 18 19 20 21 22 23 24 25 26 27
000
ASUS45 KSLC 261910
RWRUT

UTAH REGIONAL WEATHER ROUNDUP
NATIONAL WEATHER SERVICE SALT LAKE CITY UT
100 PM MDT WED APR 26 2017

UTZ001>011-023>025-262000-

NORTHERN UTAH

CITY           SKY/WX    TMP DP  RH WIND       PRES   REMARKS
BRIGHAM CITY   CLOUDY    53  33  45 S15       29.84F
DUGWAY         PTSUNNY   57  29  33 SW2       29.85F
HILL AFB       PTSUNNY   50  32  49 SW9       29.85F
LOGAN          CLOUDY    51  36  56 S13       29.83F
OGDEN          CLOUDY    51  34  52 SW10G18   29.84F
SALT LAKE CITY PTSUNNY   57  35  43 VRB6      29.85F
TOOELE VALLEY  MOSUNNY   54  34  47 N3        29.85F
WENDOVER       CLOUDY    55  30  38 SE7       29.82F
HEBER CITY     PTSUNNY   52  30  43 SW14G25   29.85F
WEST JORDAN    PTSUNNY   56  42  60 SE10      29.86F

$$

UTZ011>015-024>027-262000-

CENTRAL/NORTHEAST UTAH

CITY           SKY/WX    TMP DP  RH WIND       PRES   REMARKS
PROVO AIRPORT  PTSUNNY   53  33  46 E6        29.88F
MOAB/CANYONLAN CLOUDY    57  23  26 SW9       29.87F
DELTA          MOSUNNY   55  27  33 S9        29.88F
PRICE          CLOUDY    50  24  36 SW8       29.87F
RICHFIELD      PTSUNNY   57  28  33 S16       29.88
ROOSEVELT      MOSUNNY   57  27  30 SW21G29   29.83F
VERNAL         CLOUDY    53  30  41 VRB3      29.82F

$$

UTZ013>016-019>022-027-262000-

SOUTHERN UTAH

CITY           SKY/WX    TMP DP  RH WIND       PRES   REMARKS
BRYCE CANYON   CLOUDY    49  20  31 W8        29.96F
CEDAR CITY     CLOUDY    56  27  32 VRB5      29.92F
MILFORD        CLOUDY    56  28  34 S16       29.90F
ST GEORGE      MOCLDY    67  21  17 VRB5      29.88F
HANKSVILLE     PTSUNNY   57  19  23 SE6       29.89F
KANAB          MOSUNNY   66  23  19 S13G24    29.94
BLANDING       MOSUNNY   56  20  24 S9G20     29.96F

$$

REGIONAL REPORTS     COLORADO/ARIZONA

CITY           SKY/WX    TMP DP  RH WIND       PRES   REMARKS
CRAIG, CO      CLOUDY    48  30  49 W17G24    29.83F
GRAND JUNCTION CLOUDY    57  31  37 NW8G17    29.85F
RIFLE, CO      PTSUNNY   53  27  36 W21       29.85F
MONTROSE, CO   CLOUDY    50  24  36 S6        29.90F
CORTEZ, CO     PTSUNNY   53  26  35 VRB6      29.90F
COLORADO CITY    N/A     63  27  25 W9        29.96F
PAGE, AZ       CLOUDY    62  20  19 N9        29.90F
GRAND CANYON   MOSUNNY   57  20  23 W12       29.99F
KINGMAN, AZ    SUNNY     75  26  16 VRB3      29.91F
FLAGSTAFF, AZ  SUNNY     58  17  20 VRB7G22   30.00F

$$

REGIONAL REPORTS    NEVADA/IDAHO/WYOMING

CITY           SKY/WX    TMP DP  RH WIND       PRES   REMARKS
LAS VEGAS, NV  PTSUNNY   78  22  12 VRB7      29.84F
ELY, NY        CLOUDY    55  31  39 SW16G25   29.89F
ELKO, NV       LGT RAIN  48  41  76 SW21      29.85S
POCATELLO, ID  PTSUNNY   51  37  58 SW16G23   29.79F
BURLEY, ID     CLOUDY    50  39  66 SW6       29.78F
FORT BRIDGER,  CLOUDY    43  31  61 W15G23    29.87F
EVANSTON, WY   PTSUNNY   43  30  60 SW23G31   29.85S
ROCK SPRINGS,  LGT RAIN  40  31  70 W18G30    29.81F WCI  31
KEMMERER, WY     N/A     39  30  70 W20G25    29.83S WCI  30

$$




USA.gov is the U.S. government's official web portal to all federal, state and local government web resources and services.